This demonstration page uses our WeatherBlox Daily Observations layout. Learn more.

Left ArrowRight Arrow

39.08367, -84.50855

Hourly Observations for April 2, 2019

Temp ( °F °C ) Dew Point ( °F °C ) Humidity (%) Winds ( mph kmh ) Pressure ( in mb ) Visibility ( mi km ) Precip ( " mm )
12:53 am 00:53 Clear 33 0.6 28 -2.2 82 82 S 3 6 30.26 1025 10 16.0934 0 0
1:53 am 01:53 Clear 33 0.6 28 -2.2 82 82 Calm 30.24 1024 10 16.0934 0 0
2:53 am 02:53 Clear 30 -1.1 26 -3.3 85 85 Calm 30.21 1023 10 16.0934 0 0
3:53 am 03:53 Clear 31 -0.6 25 -3.9 79 79 Calm 30.2 1023 10 16.0934 0 0
4:53 am 04:53 Clear 31 -0.6 25 -3.9 79 79 Calm 30.18 1022 10 16.0934 0 0
5:53 am 05:53 Clear 31 -0.6 27 -2.8 85 85 Calm 30.18 1022 10 16.0934 0 0
6:53 am 06:53 Clear 32 0 27 -2.8 82 82 Calm 30.18 1022 10 16.0934 0 0
7:53 am 07:53 Sunny 32 0 27 -2.8 82 82 Calm 30.18 1022 10 16.0934 0 0
8:53 am 08:53 Sunny 33 0.6 28 -2.2 82 82 VRB 3 6 30.18 1022 10 16.0934 0 0
9:53 am 09:53 Sunny 37 2.8 29 -1.7 73 73 Calm 30.17 1022 10 16.0934 0 0
10:53 am 10:53 Sunny 42 5.6 28 -2.2 58 58 Calm 30.17 1022 10 16.0934 0 0
11:53 am 11:53 Sunny 48 8.9 26 -3.3 42 42 S 6 9 30.14 1021 10 16.0934 0 0
12:53 pm 12:53 Sunny 52 11.1 26 -3.3 37 37 VRB 6 9 30.13 1020 10 16.0934 0 0
1:53 pm 13:53 Sunny 54 12.2 25 -3.9 33 33 S 9 15 30.11 1020 10 16.0934 0 0
2:53 pm 14:53 Sunny 56 13.3 23 -5 28 28 VRB 5 7 30.09 1019 10 16.0934 0 0
3:53 pm 15:53 Sunny 58 14.4 22 -5.6 25 25 Calm 30.07 1018 10 16.0934 0 0
4:53 pm 16:53 Sunny 58 14.4 24 -4.4 27 27 SSW 8 13 30.06 1018 10 16.0934 0 0
5:53 pm 17:53 Sunny 59 15 25 -3.9 27 27 SW 8 13 30.06 1018 10 16.0934 0 0
6:53 pm 18:53 Sunny 57 13.9 26 -3.3 30 30 SW 13 20 30.06 1018 10 16.0934 0 0
7:53 pm 19:53 Sunny 53 11.7 24 -4.4 32 32 WSW 7 11 30.07 1018 10 16.0934 0 0
8:53 pm 20:53 Clear 48 8.9 31 -0.6 52 52 SSW 6 9 30.08 1019 10 16.0934 0 0
9:53 pm 21:53 Clear 46 7.8 32 0 58 58 Calm 30.11 1020 10 16.0934 0 0
10:53 pm 22:53 Clear 42 5.6 32 0 68 68 Calm 30.12 1020 10 16.0934 0 0
11:53 pm 23:53 Clear 41 5 33 0.6 73 73 SSW 3 6 30.12 1020 10 16.0934 0 0

Powered by AerisWeather